AE7MK-13 Weather Reports


time (UTC)temp
C
wind
direction
speed
KPH
gust
KPH
rain 1hr
cm
rain 24hr
cm
rain mn
cm
humidity
%
barometer
mb
20260510033004 13 0 0.0 0.0 0.00 0.00 0.00 46 1019.2
20260510032214 13 0 0.0 0.0 0.00 0.00 0.00 45 1019.1
20260510031003 13 0 0.0 0.0 0.00 0.00 0.00 44 1019.0
20260510030003 14 100 0.0 4.8 0.00 0.00 0.00 44 1019.0
20260510025003 14 0 0.0 0.0 0.00 0.00 0.00 43 1019.1
20260510024003 15 126 1.6 9.7 0.00 0.00 0.00 43 1019.0
20260510023003 15 131 1.6 6.4 0.00 0.00 0.00 42 1019.2
20260510022003 15 110 3.2 9.7 0.00 0.00 0.00 42 1019.1
20260510021003 15 107 6.4 12.9 0.00 0.00 0.00 42 1019.1
20260510020003 15 110 6.4 12.9 0.00 0.00 0.00 42 1019.0
20260510015003 15 108 6.4 11.3 0.00 0.00 0.00 41 1019.2
20260510014003 16 130 6.4 11.3 0.00 0.00 0.00 41 1019.5
20260510013003 16 140 6.4 11.3 0.00 0.00 0.00 39 1019.7
20260510012003 16 143 8.0 12.9 0.00 0.00 0.00 38 1019.7
20260510011213 16 146 8.0 16.1 0.00 0.00 0.00 38 1019.7
20260510010003 16 149 8.0 14.5 0.00 0.00 0.00 37 1019.8
20260510005003 16 114 4.8 11.3 0.00 0.00 0.00 37 1019.6
20260510004003 16 143 6.4 14.5 0.00 0.00 0.00 37 1019.7
20260510003004 16 132 6.4 14.5 0.00 0.00 0.00 37 1019.6
20260510002214 17 136 6.4 14.5 0.00 0.00 0.00 36 1019.8
20260510001215 17 157 6.4 14.5 0.00 0.00 0.00 36 1019.8
20260510000212 17 167 3.2 8.0 0.00 0.00 0.00 34 1019.7
20260509235003 17 158 4.8 14.5 0.00 0.00 0.00 35 1019.8
20260509234003 17 127 4.8 11.3 0.00 0.00 0.00 33 1019.8
20260509233003 17 148 4.8 12.9 0.00 0.00 0.00 33 1020.0
20260509232003 17 157 4.8 14.5 0.00 0.00 0.00 32 1020.0
20260509231003 17 151 4.8 11.3 0.00 0.00 0.00 32 1020.2
20260509230005 17 135 3.2 14.5 0.00 0.00 0.00 32 1020.4
20260509225003 17 133 8.0 17.7 0.00 0.00 0.00 30 1020.4
20260509224214 17 146 6.4 17.7 0.00 0.00 0.00 31 1020.4
20260509223003 17 123 6.4 12.9 0.00 0.00 0.00 31 1020.6
20260509222003 17 152 3.2 11.3 0.00 0.00 0.00 30 1020.6
20260509221214 17 111 3.2 14.5 0.00 0.00 0.00 30 1020.7
20260509220214 17 152 4.8 14.5 0.00 0.00 0.00 29 1020.8
20260509215003 17 148 4.8 12.9 0.00 0.00 0.00 28 1020.8
20260509214003 17 171 6.4 16.1 0.00 0.00 0.00 29 1020.9
20260509213003 16 116 6.4 14.5 0.00 0.00 0.00 29 1020.9
20260509212003 17 112 6.4 16.1 0.00 0.00 0.00 30 1021.0
20260509211003 17 156 3.2 17.7 0.00 0.00 0.00 29 1021.1
20260509210003 16 161 4.8 12.9 0.00 0.00 0.00 29 1021.3
20260509205213 16 115 6.4 16.1 0.00 0.00 0.00 30 1021.2
20260509204003 16 151 3.2 14.5 0.00 0.00 0.00 32 1021.3
20260509203003 16 127 8.0 16.1 0.00 0.00 0.00 30 1021.2
20260509202003 16 115 8.0 19.3 0.00 0.00 0.00 33 1021.2
20260509201003 16 172 6.4 16.1 0.00 0.00 0.00 32 1021.3
20260509200003 16 162 8.0 20.9 0.00 0.00 0.00 30 1021.3
20260509195003 15 126 8.0 19.3 0.00 0.00 0.00 33 1021.3
20260509194003 15 125 9.7 17.7 0.00 0.00 0.00 35 1021.3
20260509193004 15 134 9.7 16.1 0.00 0.00 0.00 34 1021.4
20260509192003 15 104 8.0 19.3 0.00 0.00 0.00 34 1021.4
20260509191213 15 117 9.7 20.9 0.00 0.00 0.00 34 1021.5
20260509190003 15 148 6.4 16.1 0.00 0.00 0.00 34 1021.5
20260509185003 14 149 8.0 19.3 0.00 0.00 0.00 33 1021.5
20260509184003 14 112 8.0 19.3 0.00 0.00 0.00 37 1021.5
20260509183003 13 119 9.7 20.9 0.00 0.00 0.00 35 1021.5
20260509182212 13 118 9.7 19.3 0.00 0.00 0.00 39 1021.4
20260509181003 13 116 9.7 17.7 0.00 0.00 0.00 40 1021.6
20260509180003 13 137 9.7 20.9 0.00 0.00 0.00 39 1021.7
20260509175003 13 115 11.3 19.3 0.00 0.00 0.00 39 1021.6
20260509174003 13 111 11.3 19.3 0.00 0.00 0.00 41 1021.6
20260509173214 13 117 9.7 19.3 0.00 0.00 0.00 41 1021.7
20260509172003 13 146 11.3 19.3 0.00 0.00 0.00 38 1021.5
20260509171003 13 110 8.0 16.1 0.00 0.00 0.00 38 1021.4
20260509170003 13 122 9.7 16.1 0.00 0.00 0.00 39 1021.3
20260509165003 13 112 8.0 14.5 0.00 0.00 0.00 40 1021.2
20260509164003 12 111 8.0 17.7 0.00 0.00 0.00 41 1021.2
20260509163003 12 103 8.0 16.1 0.00 0.00 0.00 45 1021.1
20260509162003 12 110 6.4 12.9 0.00 0.00 0.00 41 1021.2
20260509161003 13 111 6.4 11.3 0.00 0.00 0.00 43 1021.2
20260509160003 13 116 6.4 12.9 0.00 0.00 0.00 41 1021.3
20260509155003 13 109 6.4 9.7 0.00 0.00 0.00 37 1021.2
20260509154003 13 109 6.4 9.7 0.00 0.00 0.00 34 1021.3
20260509153213 13 107 1.6 9.7 0.00 0.00 0.00 32 1021.1
20260509152003 13 0 0.0 0.0 0.00 0.00 0.00 32 1021.0
20260509151003 13 0 0.0 0.0 0.00 0.00 0.00 32 1021.1
20260509150003 13 0 0.0 0.0 0.00 0.00 0.00 35 1021.0
20260509145003 12 0 0.0 0.0 0.00 0.00 0.00 37 1020.9
20260509144003 12 0 0.0 0.0 0.00 0.00 0.00 41 1020.9
20260509143213 12 0 0.0 0.0 0.00 0.00 0.00 38 1020.9
20260509142003 11 316 1.6 6.4 0.00 0.00 0.00 42 1020.8
20260509141213 11 309 4.8 9.7 0.00 0.00 0.00 43 1020.6
20260509140004 10 306 4.8 12.9 0.00 0.00 0.00 45 1020.6
20260509135003 9 325 3.2 11.3 0.00 0.00 0.00 48 1020.5
20260509134003 8 314 3.2 12.9 0.00 0.00 0.00 51 1020.3
20260509133212 8 305 6.4 16.1 0.00 0.00 0.00 51 1020.2
20260509132003 8 304 12.9 19.3 0.00 0.00 0.00 52 1020.1
20260509131214 7 303 14.5 19.3 0.00 0.00 0.00 54 1019.9
20260509130003 7 307 16.1 24.1 0.00 0.00 0.00 55 1019.8
20260509125003 7 309 14.5 19.3 0.00 0.00 0.00 56 1019.7
20260509124003 7 307 16.1 22.5 0.00 0.00 0.00 57 1019.7
20260509123003 7 306 17.7 24.1 0.00 0.00 0.00 58 1019.7
20260509122003 7 300 19.3 24.1 0.00 0.00 0.00 58 1019.7
20260509121003 7 303 19.3 25.7 0.00 0.00 0.00 57 1019.8
20260509120003 6 300 16.1 22.5 0.00 0.00 0.00 59 1019.8
20260509115003 6 303 14.5 20.9 0.00 0.00 0.00 61 1019.8
20260509114003 6 308 11.3 17.7 0.00 0.00 0.00 64 1020.0
20260509113003 6 308 11.3 17.7 0.00 0.00 0.00 64 1020.0
20260509112003 6 328 1.6 9.7 0.00 0.00 0.00 66 1020.1
20260509111003 6 317 1.6 9.7 0.00 0.00 0.00 65 1020.1
20260509110003 6 331 1.6 8.0 0.00 0.00 0.00 66 1020.1
20260509105003 6 347 3.2 11.3 0.00 0.00 0.00 65 1019.9
20260509104003 6 329 3.2 9.7 0.00 0.00 0.00 65 1019.9
20260509103003 6 327 3.2 12.9 0.00 0.00 0.00 64 1019.8
20260509102003 6 322 3.2 12.9 0.00 0.00 0.00 64 1019.8
20260509101003 6 318 6.4 17.7 0.00 0.00 0.00 63 1019.8
20260509100004 6 316 8.0 19.3 0.00 0.00 0.00 61 1019.6
20260509095003 7 319 8.0 22.5 0.00 0.00 0.00 61 1019.5
20260509094003 7 313 16.1 27.4 0.00 0.00 0.00 61 1019.4
20260509093003 7 312 19.3 32.2 0.00 0.00 0.00 60 1019.3
20260509092004 7 315 17.7 29.0 0.00 0.00 0.00 61 1019.3
20260509091003 7 309 22.5 32.2 0.00 0.00 0.00 59 1019.3
20260509090003 7 305 22.5 30.6 0.00 0.00 0.00 58 1019.3
20260509085003 7 307 20.9 29.0 0.00 0.00 0.00 58 1019.5
20260509084003 7 307 19.3 29.0 0.00 0.00 0.00 57 1019.5
20260509083003 8 307 20.9 30.6 0.00 0.00 0.00 54 1019.5
20260509082003 8 307 19.3 29.0 0.00 0.00 0.00 54 1019.5
20260509081004 8 301 20.9 30.6 0.00 0.00 0.00 52 1019.5
20260509080003 8 302 17.7 29.0 0.00 0.00 0.00 52 1019.6
20260509075004 8 303 16.1 29.0 0.00 0.00 0.00 53 1019.6
20260509074003 8 304 17.7 27.4 0.00 0.00 0.00 52 1019.6
20260509073003 7 303 17.7 24.1 0.00 0.00 0.00 52 1019.5
20260509072003 8 306 14.5 20.9 0.00 0.00 0.00 51 1019.5
20260509071003 8 304 11.3 17.7 0.00 0.00 0.00 51 1019.3
20260509070004 8 299 12.9 20.9 0.00 0.00 0.00 50 1019.2
20260509065003 8 292 16.1 22.5 0.00 0.00 0.00 49 1019.1
20260509064214 8 291 12.9 30.6 0.00 0.00 0.00 50 1019.1
20260509063003 7 288 9.7 19.3 0.00 0.00 0.00 53 1019.3
20260509062003 7 291 9.7 20.9 0.00 0.00 0.00 53 1019.2
20260509061214 7 290 9.7 16.1 0.00 0.00 0.00 52 1019.2
20260509060004 8 285 16.1 27.4 0.00 0.00 0.00 50 1018.9
20260509055214 8 282 17.7 27.4 0.00 0.00 0.00 50 1018.9
20260509054003 8 295 17.7 25.7 0.00 0.00 0.00 48 1019.0
20260509053213 8 300 19.3 29.0 0.00 0.00 0.00 47 1018.9
20260509052003 8 296 22.5 35.4 0.00 0.00 0.00 46 1018.7
20260509051003 9 294 25.7 41.8 0.00 0.00 0.00 45 1018.4
20260509050213 9 289 27.4 38.6 0.00 0.00 0.00 45 1018.2
20260509045003 9 293 29.0 43.5 0.00 0.00 0.00 44 1018.3
20260509044003 10 287 30.6 41.8 0.00 0.00 0.00 43 1018.2
20260509043003 10 290 29.0 43.5 0.00 0.00 0.00 42 1018.3
20260509042003 10 284 30.6 51.5 0.00 0.00 0.00 41 1018.2
20260509041213 10 282 29.0 51.5 0.00 0.00 0.00 40 1018.1
20260509040003 11 281 35.4 53.1 0.00 0.00 0.00 37 1017.7
20260509035003 11 278 37.0 56.3 0.00 0.00 0.00 37 1017.2
20260509034003 11 275 37.0 59.5 0.00 0.00 0.00 35 1017.1